Regional Weather Roundup
Issued by NWS

Home | Current Version | Previous Version | Graphics & Text | Print | Product List | Glossary On
Versions: 1 2 3 4 5 6 7 8 9 10 11 12 13 14 15 16 17 18 19 20 21 22 23 24 25 26 27 28 29 30 31 32 33 34 35 36 37 38 39 40 41 42 43 44 45 46 47 48 49 50
000
ASUS43 KTOP 252359
RWRKS

WEATHER ROUNDUP FOR KANSAS
NATIONAL WEATHER SERVICE GOODLAND KS
600 PM CST SAT FEB 25 2017

NOTE:  "FAIR" INDICATES FEW OR NO CLOUDS BELOW 12,000 FEET WITH NO
SIGNIFICANT WEATHER AND/OR OBSTRUCTIONS TO VISIBILITY.

KSZ001>006-013>018-027>032-041>047-260100-
NORTHWEST KANSAS

CITY           SKY/WX    TMP DP  RH WIND       PRES   REMARKS
GOODLAND       CLEAR     36   3  25 E9        29.85F
6HR MIN TEMP:  36; 6HR MAX TEMP:  42;

HAYS           PTCLDY    44  14  29 SW9       29.93F
HILL CITY      PTCLDY    44   8  23 NW12G21   29.91S
6HR MIN TEMP:  38; 6HR MAX TEMP:  48;

RUSSELL        CLOUDY    45  15  30 SW13      29.92F
6HR MIN TEMP:  39; 6HR MAX TEMP:  48;

$$

KSZ061>065-074>080-084>089-260100-
SOUTHWEST KANSAS

CITY           SKY/WX    TMP DP  RH WIND       PRES   REMARKS
DODGE CITY     PTCLDY    45  15  30 S13       29.90F
6HR MIN TEMP:  39; 6HR MAX TEMP:  48;

ELKHART          N/A     47  11  23 S6          N/A
GARDEN CITY    CLEAR     47   3  16 NW5       29.86F
6HR MIN TEMP:  39; 6HR MAX TEMP:  50;

GREAT BEND     CLEAR     43  13  29 S13       29.95F
LIBERAL        CLEAR     48  12  23 SW6       29.87F
$$

KSZ066>073-081>083-090>101-260100-
SOUTHEAST KANSAS

CITY           SKY/WX    TMP DP  RH WIND       PRES   REMARKS
CHANUTE        CLEAR     41  11  29 S7        30.08F
6HR MIN TEMP:  38; 6HR MAX TEMP:  47;

COFFEYVILLE    CLEAR     43  13  29 S6        30.10F
6HR MIN TEMP:  39; 6HR MAX TEMP:  47;

HUTCHINSON     CLEAR     42  13  30 S13       30.01F
6HR MIN TEMP:  37; 6HR MAX TEMP:  47;

MEDICINE LODGE   N/A     43  11  27 S10       30.01S
NEWTON         CLEAR     40  14  34 SW13      30.03F WCI  32
PARSONS        CLEAR     43  12  28 S7        30.10F
6HR MIN TEMP:  39; 6HR MAX TEMP:  47;

WICHITA INTL   PTCLDY    41  15  35 S10       30.04F
6HR MIN TEMP:  37; 6HR MAX TEMP:  45;

WICHITA JABRA  CLEAR     40  16  37 S14       30.04F WCI  32
6HR MIN TEMP:  36; 6HR MAX TEMP:  44;

WINFIELD       CLEAR     41  17  38 S10       30.07F
6HR MIN TEMP:  38; 6HR MAX TEMP:  45;

$$

KSZ007>012-019>026-033>040-048>060-102>105-260100-
NORTHEAST KANSAS

CITY           SKY/WX    TMP DP  RH WIND       PRES   REMARKS
CONCORDIA      CLOUDY    41  19  41 SW9       29.95F
6HR MIN TEMP:  33; 6HR MAX TEMP:  45;

EMPORIA        PTCLDY    39   8  27 SW9       30.04F
6HR MIN TEMP:  36; 6HR MAX TEMP:  45;

LAWRENCE       CLEAR     41   9  26 S9        30.05F
6HR MIN TEMP:  35; 6HR MAX TEMP:  44;

MANHATTAN      PTCLDY    43  13  29 SW14      30.01F
6HR MIN TEMP:  35; 6HR MAX TEMP:  46;

OLATHE IND     CLEAR     39   9  29 S7        30.06F
6HR MIN TEMP:  35; 6HR MAX TEMP:  43;

OLATHE EXE     CLEAR     38  11  32 S5        30.05F
6HR MIN TEMP:  34; 6HR MAX TEMP:  41;

SALINA         CLOUDY    45  13  27 S10       29.99F
6HR MIN TEMP:  40; 6HR MAX TEMP:  49;

TOPEKA BILLARD CLEAR     42  10  27 S7        30.04F
6HR MIN TEMP:  34; 6HR MAX TEMP:  45;

TOPEKA FORBES  CLEAR     40  10  29 S8        30.03F
6HR MIN TEMP:  37; 6HR MAX TEMP:  46;

$$



USA.gov is the U.S. government's official web portal to all federal, state and local government web resources and services.